Location: Peterborough
(44.3091°N, 78.3197°W)
Time: 17:15:35
(UTC-04:00)

Transit 2A - Pass Details

Date: 28 March 2023
Orbit: 591 x 964 km, 66.7° (Epoch: 04 June)

Event Time Altitude Azimuth Distance (km) Brightness Sun altitude
Rises 16:11:53 0° 310° (NW) 3,656 9.7 33.9°
Reaches altitude 10° 16:16:16 10° 282° (WNW) 2,695 9.5 33.2°
Maximum altitude 16:18:35 12° 260° (W) 2,519 9.9 32.9°
Drops below altitude 10° 16:20:52 10° 239° (WSW) 2,653 10.3 32.5°
Sets 16:25:07 0° 210° (SSW) 3,532 10.3 31.9°
